Printer-friendly version
Follow the MPC on Twitter Follow the MPC on Facebook The MPC blog
Minor Planet Center

MPEC 2010-P60 : 2010 PP58

The following Minor Planet Electronic Circular may be linked-to from your own Web pages, but must not otherwise be redistributed electronically.

A form allowing access to any MPEC is at the bottom of this page.


Read MPEC 2010-P59 Read MPEC 2010-P61


M.P.E.C. 2010-P60                                Issued 2010 Aug. 13, 17:22 UT

     The Minor Planet Electronic Circulars contain information on unusual
         minor planets and routine data on comets.  They are published
   on behalf of Commission 20 of the International Astronomical Union by the
          Minor Planet Center, Smithsonian Astrophysical Observatory,
                          Cambridge, MA 02138, U.S.A.

             Prepared using the Tamkin Foundation Computer Network

                              MPC@CFA.HARVARD.EDU
       URL http://www.minorplanetcenter.org/iau/mpc.html  ISSN 1523-6714

                                   2010 PP58

Observations:
     K10P58P* S2010 08 05.86010 02 15 53.83 +30 18 09.8          21   R EP060C51
     K10P58P  s2010 08 05.86010 1 + 4064.3771 + 4208.8893 + 3663.9697   EP060C51
     K10P58P  S2010 08 05.92619 02 16 36.61 +30 18 30.4                 EP060C51
     K10P58P  s2010 08 05.92619 1 + 4039.9213 + 4202.1991 + 3698.6527   EP060C51
     K10P58P  S2010 08 05.99241 02 17 19.37 +30 18 52.1                 EP060C51
     K10P58P  s2010 08 05.99241 1 + 4055.4501 + 4218.5828 + 3663.2015   EP060C51
     K10P58P  S2010 08 06.05849 02 18 01.94 +30 19 11.2                 EP060C51
     K10P58P  s2010 08 06.05849 1 + 4030.9164 + 4211.8428 + 3697.8795   EP060C51
     K10P58P  S2010 08 06.12471 02 18 44.68 +30 19 31.2                 EP060C51
     K10P58P  s2010 08 06.12471 1 + 4046.1773 + 4228.1608 + 3662.7070   EP060C51
     K10P58P  S2010 08 06.19080 02 19 27.13 +30 19 48.5                 EP060C51
     K10P58P  s2010 08 06.19080 1 + 4021.7874 + 4221.4271 + 3697.0212   EP060C51
     K10P58P  S2010 08 06.32310 02 20 51.99 +30 20 21.9                 EP060C51
     K10P58P  s2010 08 06.32310 1 + 4013.0337 + 4231.0275 + 3695.4177   EP060C51
     K10P58P tC2010 08 11.39174 03 11 15.03 +30 02 19.0          21.5 V EP060291
     K10P58P tC2010 08 11.39712 03 11 17.50 +30 02 18.7                 EP060291
     K10P58P tC2010 08 12.40782 03 20 20.71 +29 51 15.9          21.8 V EP060291
     K10P58P tC2010 08 12.41223 03 20 22.77 +29 51 12.7          22.2 V EP060291
     K10P58P tC2010 08 12.41647 03 20 24.94 +29 51 11.4          21.8 V EP060291
     K10P58P  C2010 08 13.36111003 28 33.31 +29 39 07.6          21.4 V EP060H21
     K10P58P  C2010 08 13.37785803 28 41.56 +29 38 55.9          21.7 V EP060H21
     K10P58P  C2010 08 13.39251503 28 48.84 +29 38 44.5          21.3 V EP060H21

Observer details:
291 LPL/Spacewatch II.  Observer T. H. Bressi.  1.8-m f/2.7 reflector + CCD.
C51 WISE.  Measurers A. K. Mainzer, E. L. Wright, J. M. Bauer, T. Grav,
    J. W. Dailey, J. R. Masiero, R. M. Cutri, R. S. McMillan,
    R. G. Walker. (http://wise.ssl.berkeley.edu/mission_sci.html).
H21 Astronomical Research Observatory, Westfield.  Observer R. Holmes.
    Measurer S. Foglia.  0.81-m f/4.0 astrograph + CCD.

Orbital elements:
2010 PP58                                                Earth MOID = 0.0115 AU
Epoch 2010 July 23.0 TT = JDT 2455400.5                 MPC
M 349.01173              (2000.0)            P               Q
n   0.29112139     Peri.  174.69458     +0.99009755     +0.14032118
a   2.2546889      Node   177.22896     -0.13171455     +0.93867787
e   0.5620135      Incl.    4.86374     -0.04856038     +0.31495052
P   3.39           H   22.1           G   0.15           U   9
Residuals in seconds of arc
100805 C51  0.0   1.6+    100806 C51  0.2+  0.4-    100812 291  0.1+  0.6-
100805 C51  0.4+  0.5+    100806 C51  0.1+  1.0-    100812 291  0.1-  0.8+
100805 C51  0.2+  0.7+    100811 291  2.1+  1.5-    100813 H21  0.8-  0.7+
100806 C51  0.4-  0.1-    100811 291  3.3-  0.8+    100813 H21  1.6-  1.3+
100806 C51  0.8+  0.3+    100812 291  2.9+  0.1-    100813 H21  1.3-  0.8+

Ephemeris:
2010 PP58                a,e,i = 2.25, 0.56, 5                   q = 0.9875
Date    TT    R. A. (2000) Decl.     Delta      r     Elong.  Phase     V
2010 08 12    03 16.69   +29 56.1    0.199    1.014    84.5    84.2    21.6
2010 08 17    03 57.19   +28 41.9    0.218    1.001    80.8    86.7    21.8
2010 08 22    04 30.21   +27 07.0    0.239    0.993    78.7    87.7    22.1
2010 08 27    04 57.23   +25 27.2    0.262    0.988    77.7    87.3    22.2
2010 09 01    05 19.62   +23 50.3    0.286    0.988    77.5    86.0    22.4

Sonia Keys                   (C) Copyright 2010 MPC           M.P.E.C. 2010-P60

Read MPEC 2010-P59 Read MPEC 2010-P61


MPEC number:

Enter an MPEC number in one of the following forms:

  • 1997-B01 (the full form)
  • J97B01 (the packed version of the full form)
  • B01 (the abbreviated form)

Valid HTML 4.01!